CW6037 Weather Reports


Display with metric or nautical units.
time (UTC)temp
F
wind
direction
speed
MPH
gust
MPH
rain 1hr
in
rain 24hr
in
rain mn
in
humidity
%
barometer
mb
20180222143203 38 285 0.0 1.0 0.02 0.12 0.12 95 1034.6
20180222142303 37 285 0.0 1.0 0.03 0.12 0.12 95 1034.2
20180222141403 38 0 0.0 0.0 0.03 0.11 0.11 95 1034.7
20180222140503 37 0 0.0 0.0 0.04 0.11 0.11 95 1034.7
20180222135603 38 285 0.0 1.0 0.04 0.10 0.10 95 1035.1
20180222134703 38 285 0.0 1.0 0.04 0.10 0.10 95 1035.1
20180222133803 38 0 0.0 0.0 0.06 0.10 0.10 95 1035.2
20180222132903 37 285 0.0 1.0 0.06 0.10 0.10 95 1035.1
20180222132003 37 0 0.0 0.0 0.06 0.09 0.09 95 1035.1
20180222131103 37 0 0.0 0.0 0.05 0.08 0.08 95 1034.7
20180222130203 37 285 0.0 1.0 0.04 0.07 0.07 95 1034.7
20180222125306 37 0 0.0 0.0 0.04 0.06 0.06 94 1034.1
20180222124403 37 285 0.0 1.0 0.02 0.04 0.05 94 1033.2
20180222123503 37 322 0.0 2.0 0.02 0.04 0.04 94 1033.2
20180222122603 37 54 0.0 1.0 0.01 0.03 0.03 94 1033.0
20180222121703 37 54 0.0 1.0 0.02 0.03 0.03 94 1033.0
20180222120803 37 0 0.0 0.0 0.03 0.03 0.03 93 1032.5
20180222115903 37 0 0.0 0.0 0.03 0.03 0.03 93 1032.5
20180222115003 37 0 0.0 0.0 0.02 0.02 0.02 92 1032.5
20180222114103 37 54 0.0 1.0 0.02 0.02 0.02 92 1033.1
20180222113204 37 49 0.0 4.0 0.02 0.02 0.02 91 1033.1
20180222112306 38 43 0.0 4.0 0.01 0.01 0.02 91 1033.1
20180222111403 38 295 0.0 1.0 0.01 0.01 0.01 90 1032.8
20180222110503 38 295 0.0 1.0 0.00 0.00 0.00 90 1032.8
20180222105603 38 295 0.0 1.0 0.00 0.00 0.00 89 1032.5
20180222104703 38 295 0.0 2.0 0.00 0.00 0.00 88 1032.5
20180222103803 38 294 0.0 1.0 0.00 0.00 0.00 86 1032.6
20180222102903 38 335 0.0 5.0 0.00 0.00 0.00 86 1032.0
20180222102003 38 35 1.0 5.0 0.00 0.00 0.00 85 1032.0
20180222101103 38 38 0.0 3.0 0.00 0.00 0.00 85 1032.0
20180222100203 38 44 0.0 3.0 0.00 0.00 0.00 85 1032.0
20180222095305 38 65 0.0 3.0 0.00 0.00 0.00 85 1032.3
20180222094403 38 295 0.0 2.0 0.00 0.00 0.00 85 1032.3
20180222093503 38 295 0.0 2.0 0.00 0.00 0.00 85 1032.3
20180222092603 38 3 1.0 4.0 0.00 0.00 0.00 84 1032.1
20180222091703 38 357 0.0 3.0 0.00 0.00 0.00 84 1032.1
20180222090803 39 302 0.0 3.0 0.00 0.00 0.00 84 1032.6
20180222085903 39 3 1.0 5.0 0.00 0.00 0.00 84 1032.7
20180222085003 39 316 1.0 3.0 0.00 0.00 0.00 84 1032.7
20180222084103 39 301 0.0 3.0 0.00 0.00 0.00 83 1032.5
20180222083203 39 11 0.0 3.0 0.00 0.00 0.00 83 1032.5
20180222082303 39 5 1.0 3.0 0.00 0.00 0.00 83 1032.4
20180222081403 39 6 1.0 3.0 0.00 0.00 0.00 83 1032.2
20180222080503 39 6 1.0 2.0 0.00 0.00 0.00 83 1032.2
20180222075603 39 12 0.0 4.0 0.00 0.00 0.00 83 1032.4
20180222074703 39 343 0.0 2.0 0.00 0.00 0.00 83 1032.4
20180222073804 39 343 0.0 2.0 0.00 0.00 0.00 82 1032.5
20180222072903 39 351 0.0 3.0 0.00 0.00 0.00 82 1032.0
20180222072003 39 29 1.0 5.0 0.00 0.00 0.00 82 1032.0
20180222071103 39 348 1.0 3.0 0.00 0.00 0.00 82 1032.5
20180222070203 39 349 1.0 3.0 0.00 0.00 0.00 82 1032.5
20180222065303 40 315 0.0 3.0 0.00 0.00 0.00 81 1032.6
20180222064403 40 315 1.0 4.0 0.00 0.00 0.00 81 1032.4
20180222063503 40 356 1.0 4.0 0.00 0.00 0.00 81 1032.4
20180222062603 40 24 1.0 5.0 0.00 0.00 0.00 81 1032.0
20180222061703 40 18 2.0 5.0 0.00 0.00 0.00 80 1032.0
20180222060803 40 24 1.0 5.0 0.00 0.00 0.00 81 1032.0
20180222055903 40 22 1.0 5.0 0.00 0.00 0.00 82 1032.4
20180222055003 40 2 0.0 5.0 0.00 0.00 0.00 84 1032.4
20180222054103 40 314 0.0 1.0 0.00 0.00 0.00 85 1031.5
20180222053203 41 314 0.0 1.0 0.00 0.00 0.00 85 1031.5
20180222052303 41 313 0.0 3.0 0.00 0.00 0.00 84 1031.8
20180222051403 41 310 1.0 8.0 0.00 0.00 0.00 84 1031.7
20180222050503 41 306 2.0 8.0 0.00 0.00 0.00 85 1031.7
20180222045603 41 308 1.0 8.0 0.00 0.00 0.00 85 1031.3
20180222044703 41 306 1.0 4.0 0.00 0.00 0.00 85 1031.3
20180222043803 42 315 1.0 4.0 0.00 0.00 0.00 85 1031.4
20180222042903 42 292 0.0 2.0 0.00 0.00 0.00 86 1031.4
20180222042003 42 288 0.0 3.0 0.00 0.00 0.00 86 1031.4
20180222041103 42 298 1.0 9.0 0.00 0.00 0.00 86 1030.9
20180222040203 42 292 0.0 4.0 0.00 0.00 0.00 86 1030.9
20180222035303 42 334 0.0 5.0 0.00 0.00 0.00 86 1030.7
20180222034403 43 302 0.0 4.0 0.00 0.00 0.00 86 1030.3
20180222033503 43 327 1.0 5.0 0.00 0.00 0.00 86 1030.3
20180222032603 43 322 1.0 6.0 0.00 0.00 0.00 86 1030.3
20180222031703 43 297 1.0 7.0 0.00 0.00 0.00 86 1030.3
20180222030803 43 319 1.0 4.0 0.00 0.00 0.00 85 1030.5
20180222025903 44 1 1.0 4.0 0.00 0.00 0.00 85 1030.6
20180222025003 44 9 1.0 4.0 0.00 0.00 0.00 85 1030.6
20180222024103 44 8 1.0 5.0 0.00 0.00 0.00 85 1030.3
20180222023203 44 304 1.0 4.0 0.00 0.00 0.00 85 1030.3
20180222022303 44 290 1.0 5.0 0.00 0.00 0.00 84 1030.3
20180222021403 45 336 1.0 5.0 0.00 0.00 0.00 85 1030.1
20180222020503 45 337 1.0 4.0 0.00 0.00 0.00 84 1030.1
20180222015603 45 332 0.0 2.0 0.00 0.00 0.00 84 1030.3
20180222014703 45 338 0.0 2.0 0.00 0.00 0.00 84 1030.3
20180222013803 46 330 1.0 5.0 0.00 0.00 0.00 84 1030.1
20180222012903 46 33 0.0 4.0 0.00 0.00 0.00 83 1029.8
20180222012003 46 336 1.0 4.0 0.00 0.00 0.00 81 1029.8
20180222011103 46 355 1.0 5.0 0.00 0.00 0.00 82 1029.5
20180222010203 46 46 1.0 6.0 0.00 0.00 0.00 83 1029.5
20180222005303 47 23 1.0 5.0 0.00 0.00 0.00 83 1029.4
20180222004403 47 26 1.0 7.0 0.00 0.00 0.00 84 1029.4
20180222003503 48 16 1.0 4.0 0.00 0.00 0.00 86 1029.4
20180222002603 48 36 1.0 5.0 0.00 0.00 0.00 88 1029.0
20180222001703 49 15 1.0 3.0 0.00 0.00 0.00 88 1029.0
20180222000803 49 296 1.0 4.0 0.00 0.00 0.00 88 1028.6
20180221235903 50 256 0.0 4.0 0.00 0.00 0.00 87 1028.2
20180221235003 50 340 0.0 3.0 0.00 0.00 0.00 87 1028.2
20180221234103 50 300 0.0 3.0 0.00 0.00 0.00 86 1027.7
20180221233202 51 316 0.0 4.0 0.00 0.00 0.00 86 1027.7
20180221232303 51 311 1.0 4.0 0.00 0.00 0.00 84 1027.6
20180221231403 52 27 0.0 2.0 0.00 0.00 0.00 83 1027.2
20180221230503 52 12 1.0 5.0 0.00 0.00 0.00 82 1027.2
20180221225602 52 24 4.0 11.0 0.00 0.00 0.00 81 1026.8
20180221224703 53 339 2.0 17.0 0.00 0.00 0.00 80 1026.8
20180221223803 54 10 2.0 10.0 0.00 0.00 0.00 79 1026.5
20180221222903 55 20 3.0 8.0 0.00 0.00 0.00 78 1025.9
20180221222003 56 33 3.0 13.0 0.00 0.00 0.00 78 1025.9
20180221221103 58 6 4.0 11.0 0.00 0.00 0.00 77 1024.6
20180221220203 59 19 3.0 6.0 0.00 0.00 0.00 79 1024.6
20180221215302 60 325 3.0 11.0 0.00 0.00 0.00 79 1024.4
20180221214404 61 314 2.0 12.0 0.00 0.00 0.00 79 1023.4
20180221213503 61 326 4.0 14.0 0.00 0.00 0.00 78 1023.4
20180221212602 62 317 5.0 13.0 0.00 0.00 0.00 79 1023.3
20180221211702 64 322 5.0 16.0 0.00 0.00 0.00 76 1023.3
20180221210802 68 321 6.0 13.0 0.00 0.00 0.00 69 1022.4
20180221205904 73 280 7.0 14.0 0.00 0.00 0.00 63 1021.3
20180221205003 74 260 7.0 17.0 0.00 0.00 0.00 62 1021.3
20180221204103 74 248 4.0 13.0 0.00 0.00 0.00 61 1021.3
20180221203203 74 251 5.0 15.0 0.00 0.00 0.00 62 1021.3
20180221202303 74 251 6.0 17.0 0.00 0.00 0.00 62 1021.2
20180221201402 74 260 6.0 16.0 0.00 0.00 0.00 61 1020.9
20180221200502 74 230 3.0 15.0 0.00 0.00 0.00 62 1020.9
20180221195603 73 252 5.0 13.0 0.00 0.00 0.00 62 1020.9
20180221194702 73 240 4.0 17.0 0.00 0.00 0.00 62 1020.9
20180221193803 74 226 4.0 10.0 0.00 0.00 0.00 62 1020.8
20180221192903 74 258 5.0 12.0 0.00 0.00 0.00 61 1020.8
20180221192003 75 247 5.0 16.0 0.00 0.00 0.00 60 1020.8
20180221191102 74 234 6.0 15.0 0.00 0.00 0.00 62 1020.9
20180221190203 74 231 6.0 14.0 0.00 0.00 0.00 60 1020.9
20180221185302 75 264 8.0 17.0 0.00 0.00 0.00 60 1020.6
20180221184403 74 264 5.0 15.0 0.00 0.00 0.00 62 1020.7
20180221183502 73 256 4.0 15.0 0.00 0.00 0.00 62 1020.7
20180221182603 73 229 4.0 10.0 0.00 0.00 0.00 63 1020.8
20180221181702 73 195 4.0 11.0 0.00 0.00 0.00 62 1020.8
20180221180803 73 192 4.0 11.0 0.00 0.00 0.00 63 1020.9
20180221175903 72 186 4.0 13.0 0.00 0.00 0.00 64 1021.1
20180221175002 72 186 5.0 14.0 0.00 0.00 0.00 63 1021.1
20180221174103 73 216 3.0 10.0 0.00 0.00 0.00 64 1021.4
20180221173202 72 231 4.0 14.0 0.00 0.00 0.00 64 1021.3
20180221172302 71 229 5.0 16.0 0.00 0.00 0.00 66 1021.4
20180221171403 70 224 5.0 13.0 0.00 0.00 0.00 66 1021.5
20180221170502 70 214 5.0 13.0 0.00 0.00 0.00 67 1021.5
20180221165602 70 240 3.0 8.0 0.00 0.00 0.00 68 1021.7
20180221164703 70 221 3.0 11.0 0.00 0.00 0.00 69 1021.7
20180221163803 69 210 4.0 11.0 0.00 0.00 0.00 71 1021.9
20180221162903 68 199 3.0 9.0 0.00 0.00 0.00 72 1022.0
20180221162003 68 191 5.0 13.0 0.00 0.00 0.00 73 1022.0
20180221161103 67 208 3.0 10.0 0.00 0.00 0.00 75 1022.3
20180221160203 67 208 4.0 12.0 0.00 0.00 0.00 75 1022.3
20180221155302 66 228 4.0 13.0 0.00 0.00 0.00 78 1022.4
20180221154402 64 231 4.0 12.0 0.00 0.00 0.00 84 1022.5
20180221153502 61 211 2.0 7.0 0.00 0.00 0.00 99 1022.5
20180221152602 59 249 2.0 8.0 0.00 0.00 0.00 100 1022.3
20180221151702 57 223 1.0 8.0 0.00 0.00 0.00 100 1022.3
20180221150802 54 290 0.0 1.0 0.00 0.00 0.00 100 1022.5
20180221145903 52 290 0.0 1.0 0.00 0.00 0.00 100 1022.8
20180221145003 51 290 0.0 1.0 0.00 0.00 0.00 99 1022.8
20180221144104 49 0 0.0 0.0 0.00 0.00 0.00 99 1023.0